sat.trackr.live / text

‹ back to catalog

STARLINK-35747

NORAD 66207 · 2025-244B

PAYLOAD ACTIVE UNKNOWN

§ Identity

Operator
Country
US
Launch date
2025-10-28
Launch site
AFWTR
Launch vehicle
Mass (kg)
RCS (m²)

Purposes: comms

External: N2YO · Heavens-Above · Gunter

§ Orbital elements

Epoch: 2026-05-24T23:03:04.416192Z

Period
93.85 min
Inclination
53.1594°
Eccentricity
0.0001263
Mean motion
15.34411969 rev/d
Perigee alt
461.8 km
Apogee alt
463.5 km
Semi-major
6,840.8 km
B*
8.8388e-4
RAAN
235.8250°
Arg perigee
96.7402°
Mean anomaly
263.3744°
Rev number
3,333

§ Raw data

STARLINK-357471 66207U 25244B   26144.96046778  .00029616  00000+0  88388-3 0  99932 66207  53.1594 235.8250 0001263  96.7402 263.3744 15.34411969 33339

JSON: /api/v1/satellites/66207 · /tle

For live sub-satellite position, see the globe view (requires WebGL).

§ Visibility from observer

Set your observer location to see the next 7 days of passes ≥ 10°. The values pass through the URL so the page stays shareable.

No JS? Fill the form by hand. The geolocation button needs JavaScript.